• In Germany
  • List of Countries
  • For 7 days
  • Water Temperature
  • Satellite Maps
  • Weather Map
  • Weather Widgets
  • user-avatar
    Login

    Hourly Weather Viedma

    Today, 20 November, Monday

    Time Temperature Precipitation Wind Pressure Humidity
    00:00 +11°C° 0 mm 6 mps 753 mmHg 43%
    01:00 +11°C° 0 mm 6 mps 753 mmHg 44%
    02:00 +11°C° 0 mm 7 mps 753 mmHg 45%
    03:00 +10°C° 0 mm 6 mps 753 mmHg 48%
    04:00 +10°C° 0 mm 5 mps 752 mmHg 52%
    05:00 +10°C° 0 mm 4 mps 752 mmHg 55%
    06:00 +11°C° 0 mm 6 mps 753 mmHg 49%
    07:00 +13°C° 0 mm 8 mps 753 mmHg 43%
    08:00 +16°C° 0 mm 10 mps 754 mmHg 37%
    09:00 +16°C° 0 mm 10 mps 754 mmHg 35%
    10:00 +17°C° 0 mm 9 mps 755 mmHg 34%
    11:00 +17°C° 0 mm 9 mps 755 mmHg 33%
    12:00 +17°C° 0 mm 9 mps 756 mmHg 32%
    13:00 +18°C° 0 mm 8 mps 756 mmHg 30%
    14:00 +18°C° 0 mm 8 mps 756 mmHg 29%
    15:00 +17°C° 0 mm 8 mps 757 mmHg 31%
    16:00 +17°C° 0 mm 8 mps 757 mmHg 33%
    17:00 +16°C° 0 mm 8 mps 757 mmHg 35%
    18:00 +15°C° 0 mm 7 mps 758 mmHg 40%
    19:00 +13°C° 0 mm 6 mps 758 mmHg 46%
    20:00 +12°C° 0 mm 5 mps 759 mmHg 51%
    21:00 +11°C° 0 mm 4 mps 759 mmHg 52%
    22:00 +11°C° 0 mm 3 mps 760 mmHg 54%
    23:00 +11°C° 0 mm 3 mps 761 mmHg 55%

    Tomorrow, 21 November, Tuesday

    Time Temperature Precipitation Wind Pressure Humidity
    00:00 +10°C° 0 mm 2 mps 760 mmHg 56%
    01:00 +10°C° 0 mm 2 mps 760 mmHg 58%
    02:00 +10°C° 0 mm 1 mps 760 mmHg 60%
    03:00 +9°C° 0 mm 2 mps 760 mmHg 60%
    04:00 +9°C° 0 mm 3 mps 760 mmHg 60%
    05:00 +9°C° 0 mm 3 mps 760 mmHg 60%
    06:00 +11°C° 0 mm 4 mps 760 mmHg 55%
    07:00 +12°C° 0 mm 5 mps 761 mmHg 51%
    08:00 +14°C° 0 mm 5 mps 761 mmHg 46%
    09:00 +16°C° 0 mm 5 mps 760 mmHg 41%
    10:00 +17°C° 0 mm 5 mps 760 mmHg 37%
    11:00 +20°C° 0 mm 5 mps 760 mmHg 32%
    12:00 +21°C° 0 mm 5 mps 759 mmHg 30%
    13:00 +22°C° 0 mm 6 mps 758 mmHg 27%
    14:00 +23°C° 0 mm 6 mps 757 mmHg 24%
    15:00 +23°C° 0 mm 6 mps 756 mmHg 26%
    16:00 +23°C° 0 mm 6 mps 756 mmHg 27%
    17:00 +22°C° 0 mm 6 mps 755 mmHg 28%
    18:00 +20°C° 0 mm 4 mps 756 mmHg 33%
    19:00 +18°C° 0 mm 3 mps 756 mmHg 38%
    20:00 +17°C° 0 mm 2 mps 756 mmHg 43%
    21:00 +16°C° 0 mm 2 mps 756 mmHg 45%
    22:00 +16°C° 0 mm 3 mps 756 mmHg 48%
    23:00 +14°C° 0 mm 3 mps 756 mmHg 50%

    Day after tomorrow, 22 November, Wednesday

    Time Temperature Precipitation Wind Pressure Humidity
    00:00 +14°C° 0 mm 4 mps 755 mmHg 50%
    01:00 +14°C° 0 mm 4 mps 755 mmHg 50%
    02:00 +14°C° 0 mm 4 mps 754 mmHg 50%
    03:00 +14°C° 0 mm 4 mps 754 mmHg 49%
    04:00 +14°C° 0 mm 4 mps 754 mmHg 47%
    05:00 +14°C° 0 mm 4 mps 754 mmHg 46%
    06:00 +16°C° 0 mm 6 mps 753 mmHg 42%
    07:00 +18°C° 0 mm 7 mps 753 mmHg 39%
    08:00 +21°C° 0 mm 9 mps 753 mmHg 36%
    09:00 +21°C° 0 mm 9 mps 753 mmHg 34%
    10:00 +22°C° 0 mm 9 mps 753 mmHg 33%
    11:00 +22°C° 0 mm 10 mps 753 mmHg 32%
    12:00 +22°C° 0 mm 10 mps 752 mmHg 31%
    13:00 +22°C° 0 mm 9 mps 752 mmHg 30%
    14:00 +22°C° 0 mm 9 mps 752 mmHg 29%
    15:00 +21°C° 0 mm 9 mps 752 mmHg 32%
    16:00 +19°C° 0 mm 9 mps 752 mmHg 36%
    17:00 +20°C° 0 mm 8 mps 753 mmHg 39%
    18:00 +17°C° 0 mm 7 mps 753 mmHg 49%
    19:00 +15°C° 0 mm 6 mps 753 mmHg 59%
    20:00 +13°C° 0 mm 4 mps 753 mmHg 68%
    21:00 +12°C° 0 mm 4 mps 753 mmHg 72%
    22:00 +12°C° 0 mm 3 mps 753 mmHg 75%
    23:00 +11°C° 0 mm 3 mps 753 mmHg 79%

    23 November, Thursday

    Time Temperature Precipitation Wind Pressure Humidity
    00:00 +11°C° 0 mm 3 mps 752 mmHg 78%
    01:00 +11°C° 0 mm 3 mps 752 mmHg 78%
    02:00 +11°C° 0 mm 4 mps 752 mmHg 78%
    03:00 +12°C° 0 mm 5 mps 752 mmHg 71%
    04:00 +11°C° 0 mm 7 mps 753 mmHg 65%
    05:00 +12°C° 0 mm 8 mps 753 mmHg 58%
    06:00 +12°C° 0 mm 10 mps 754 mmHg 56%
    07:00 +13°C° 0 mm 11 mps 755 mmHg 53%
    08:00 +13°C° 0 mm 13 mps 756 mmHg 50%
    09:00 +14°C° 0 mm 13 mps 756 mmHg 45%
    10:00 +14°C° 0 mm 12 mps 757 mmHg 40%
    11:00 +14°C° 0 mm 12 mps 758 mmHg 34%
    12:00 +14°C° 0 mm 11 mps 758 mmHg 33%
    13:00 +14°C° 0 mm 11 mps 758 mmHg 32%
    14:00 +14°C° 0 mm 10 mps 758 mmHg 31%
    15:00 +15°C° 0 mm 9 mps 758 mmHg 32%
    16:00 +13°C° 0 mm 8 mps 758 mmHg 34%
    17:00 +14°C° 0 mm 7 mps 758 mmHg 35%
    18:00 +13°C° 0 mm 6 mps 759 mmHg 39%
    19:00 +12°C° 0 mm 5 mps 759 mmHg 43%
    20:00 +11°C° 0 mm 4 mps 759 mmHg 47%
    21:00 +10°C° 0 mm 3 mps 760 mmHg 49%
    22:00 +9°C° 0 mm 2 mps 760 mmHg 51%
    23:00 +9°C° 0 mm 2 mps 760 mmHg 53%

    24 November, Friday

    Time Temperature Precipitation Wind Pressure Humidity
    00:00 +9°C° 0 mm 2 mps 760 mmHg 54%
    01:00 +8°C° 0 mm 3 mps 759 mmHg 55%
    02:00 +8°C° 0 mm 3 mps 759 mmHg 56%
    03:00 +7°C° 0 mm 4 mps 759 mmHg 57%
    04:00 +7°C° 0 mm 4 mps 759 mmHg 59%
    05:00 +7°C° 0 mm 5 mps 758 mmHg 60%
    06:00 +9°C° 0 mm 6 mps 758 mmHg 54%
    07:00 +11°C° 0 mm 7 mps 758 mmHg 48%
    08:00 +14°C° 0 mm 7 mps 758 mmHg 42%
    09:00 +17°C° 0 mm 8 mps 758 mmHg 35%
    10:00 +20°C° 0 mm 8 mps 757 mmHg 29%
    11:00 +23°C° 0 mm 9 mps 757 mmHg 23%
    12:00 +24°C° 0 mm 9 mps 756 mmHg 22%
    13:00 +27°C° 0 mm 9 mps 755 mmHg 22%
    14:00 +28°C° 0 mm 9 mps 754 mmHg 21%
    15:00 +28°C° 0 mm 8 mps 754 mmHg 21%
    16:00 +29°C° 0 mm 8 mps 753 mmHg 21%
    17:00 +29°C° 0 mm 8 mps 752 mmHg 21%
    18:00 +27°C° 0 mm 6 mps 752 mmHg 24%
    19:00 +26°C° 0 mm 5 mps 752 mmHg 26%
    20:00 +23°C° 0 mm 4 mps 752 mmHg 29%
    21:00 +23°C° 0 mm 4 mps 752 mmHg 30%
    22:00 +22°C° 0 mm 5 mps 752 mmHg 31%
    23:00 +21°C° 0 mm 5 mps 752 mmHg 32%

    25 November, Saturday

    Time Temperature Precipitation Wind Pressure Humidity
    00:00 +21°C° 0 mm 6 mps 752 mmHg 34%
    01:00 +20°C° 0 mm 6 mps 753 mmHg 37%
    02:00 +19°C° 0 mm 6 mps 753 mmHg 39%
    03:00 +19°C° 0 mm 6 mps 753 mmHg 44%
    04:00 +17°C° 0 mm 6 mps 754 mmHg 49%
    05:00 +17°C° 0 mm 6 mps 754 mmHg 54%
    06:00 +18°C° 0 mm 7 mps 755 mmHg 49%
    07:00 +21°C° 0 mm 7 mps 755 mmHg 44%
    08:00 +22°C° 0 mm 7 mps 756 mmHg 39%
    09:00 +23°C° 0 mm 7 mps 756 mmHg 37%
    10:00 +23°C° 0 mm 6 mps 756 mmHg 36%
    11:00 +25°C° 0 mm 5 mps 756 mmHg 34%
    12:00 +25°C° 0 mm 5 mps 756 mmHg 34%
    13:00 +26°C° 0 mm 4 mps 756 mmHg 33%
    14:00 +26°C° 0 mm 4 mps 756 mmHg 32%
    15:00 +26°C° 0 mm 3 mps 755 mmHg 32%
    16:00 +26°C° 0 mm 3 mps 755 mmHg 32%
    17:00 +26°C° 0 mm 3 mps 754 mmHg 32%
    18:00 +24°C° 0 mm 3 mps 754 mmHg 37%
    19:00 +22°C° 0 mm 4 mps 754 mmHg 41%
    20:00 +20°C° 0 mm 5 mps 754 mmHg 46%
    21:00 +20°C° 0 mm 5 mps 754 mmHg 48%
    22:00 +19°C° 0 mm 6 mps 754 mmHg 50%
    23:00 +17°C° 0 mm 7 mps 753 mmHg 52%
    Show more